| time (UTC) | temp C | wind direction | speed KPH | gust KPH | rain 1hr cm | rain 24hr cm | rain mn cm | humidity % | barometer mb |
| 20260506073104 | 10 | 49 | 11.3 | 22.5 | 0.00 | 0.00 | 0.00 | 74 | 1012.3 |
| 20260506072604 | 10 | 48 | 8.0 | 19.3 | 0.00 | 0.00 | 0.00 | 74 | 1012.3 |
| 20260506072103 | 10 | 34 | 8.0 | 19.3 | 0.00 | 0.00 | 0.00 | 76 | 1012.3 |
| 20260506071604 | 10 | 121 | 6.4 | 14.5 | 0.00 | 0.00 | 0.00 | 76 | 1012.3 |
| 20260506071104 | 9 | 51 | 8.0 | 12.9 | 0.00 | 0.00 | 0.00 | 77 | 1012.3 |
| 20260506070104 | 9 | 34 | 9.7 | 14.5 | 0.00 | 0.00 | 0.00 | 77 | 1012.2 |
| 20260506061604 | 9 | 72 | 11.3 | 20.9 | 0.00 | 0.00 | 0.00 | 74 | 1012.1 |
| 20260506060104 | 9 | 49 | 8.0 | 16.1 | 0.00 | 0.00 | 0.00 | 75 | 1012.0 |
| 20260506045104 | 8 | 78 | 8.0 | 14.5 | 0.00 | 0.00 | 0.00 | 79 | 1011.8 |
| 20260506043105 | 8 | 64 | 8.0 | 19.3 | 0.00 | 0.00 | 0.00 | 80 | 1011.7 |
| 20260506042605 | 8 | 57 | 6.4 | 14.5 | 0.00 | 0.00 | 0.00 | 80 | 1011.7 |
| 20260506041605 | 8 | 82 | 9.7 | 20.9 | 0.00 | 0.00 | 0.00 | 79 | 1011.8 |
| 20260506040605 | 8 | 55 | 11.3 | 19.3 | 0.00 | 0.00 | 0.00 | 79 | 1011.8 |
| 20260506035104 | 8 | 60 | 6.4 | 19.3 | 0.00 | 0.00 | 0.00 | 79 | 1011.6 |
| 20260506034104 | 9 | 28 | 8.0 | 16.1 | 0.00 | 0.00 | 0.00 | 79 | 1011.6 |
| 20260506033606 | 9 | 55 | 4.8 | 11.3 | 0.00 | 0.00 | 0.00 | 79 | 1011.6 |
| 20260506032605 | 9 | 63 | 4.8 | 14.5 | 0.00 | 0.00 | 0.00 | 79 | 1011.7 |
| 20260506032105 | 9 | 85 | 8.0 | 16.1 | 0.00 | 0.00 | 0.00 | 79 | 1011.7 |
| 20260506030605 | 9 | 88 | 4.8 | 11.3 | 0.00 | 0.00 | 0.00 | 78 | 1011.7 |
| 20260506030105 | 9 | 59 | 3.2 | 11.3 | 0.00 | 0.00 | 0.00 | 78 | 1011.7 |
| 20260506023104 | 10 | 84 | 6.4 | 19.3 | 0.00 | 0.03 | 0.00 | 78 | 1011.8 |
| 20260506022604 | 10 | 102 | 8.0 | 16.1 | 0.00 | 0.03 | 0.00 | 78 | 1011.8 |
| 20260506021604 | 10 | 114 | 6.4 | 11.3 | 0.00 | 0.03 | 0.00 | 78 | 1011.8 |
| 20260506020104 | 10 | 88 | 8.0 | 16.1 | 0.00 | 0.03 | 0.00 | 79 | 1011.8 |
| 20260506015606 | 10 | 72 | 8.0 | 16.1 | 0.00 | 0.03 | 0.00 | 79 | 1011.9 |
| 20260506015104 | 10 | 65 | 8.0 | 16.1 | 0.00 | 0.03 | 0.00 | 79 | 1011.9 |
| 20260506013605 | 10 | 124 | 6.4 | 16.1 | 0.00 | 0.03 | 0.00 | 79 | 1011.9 |
| 20260506011605 | 10 | 116 | 4.8 | 11.3 | 0.00 | 0.03 | 0.00 | 79 | 1012.0 |
| 20260506010604 | 10 | 68 | 8.0 | 19.3 | 0.00 | 0.03 | 0.00 | 78 | 1012.1 |
| 20260506005104 | 10 | 67 | 3.2 | 9.7 | 0.00 | 0.03 | 0.00 | 77 | 1012.0 |
| 20260506004604 | 10 | 110 | 9.7 | 19.3 | 0.00 | 0.03 | 0.00 | 77 | 1012.0 |
| 20260506003104 | 10 | 117 | 8.0 | 12.9 | 0.00 | 0.03 | 0.00 | 76 | 1012.1 |
| 20260506002604 | 11 | 114 | 4.8 | 12.9 | 0.00 | 0.03 | 0.00 | 75 | 1012.2 |
| 20260506002105 | 11 | 122 | 8.0 | 12.9 | 0.00 | 0.03 | 0.00 | 75 | 1012.1 |
| 20260506001605 | 11 | 119 | 9.7 | 22.5 | 0.00 | 0.03 | 0.00 | 75 | 1012.1 |
| 20260506000604 | 11 | 70 | 4.8 | 16.1 | 0.00 | 0.03 | 0.00 | 75 | 1012.1 |
| 20260506000104 | 11 | 104 | 9.7 | 19.3 | 0.00 | 0.03 | 0.00 | 75 | 1012.1 |
| 20260505234606 | 11 | 112 | 8.0 | 12.9 | 0.00 | 0.03 | 0.00 | 74 | 1012.1 |
| 20260505232605 | 11 | 114 | 8.0 | 19.3 | 0.00 | 0.03 | 0.00 | 74 | 1012.0 |
| 20260505231604 | 11 | 104 | 4.8 | 19.3 | 0.00 | 0.03 | 0.00 | 74 | 1012.0 |
| 20260505230104 | 11 | 121 | 9.7 | 19.3 | 0.00 | 0.03 | 0.00 | 73 | 1012.0 |
| 20260505225105 | 11 | 118 | 8.0 | 12.9 | 0.00 | 0.03 | 0.03 | 73 | 1011.9 |
| 20260505223604 | 12 | 87 | 8.0 | 20.9 | 0.00 | 0.03 | 0.03 | 76 | 1011.8 |
| 20260505215104 | 12 | 124 | 14.5 | 24.1 | 0.00 | 0.03 | 0.03 | 74 | 1011.8 |
| 20260505214604 | 12 | 146 | 9.7 | 29.0 | 0.00 | 0.03 | 0.03 | 73 | 1011.8 |
| 20260505214104 | 12 | 133 | 11.3 | 19.3 | 0.00 | 0.03 | 0.03 | 73 | 1011.8 |
| 20260505213604 | 12 | 124 | 12.9 | 22.5 | 0.00 | 0.03 | 0.03 | 73 | 1011.8 |
| 20260505213104 | 12 | 115 | 9.7 | 20.9 | 0.00 | 0.03 | 0.03 | 73 | 1011.7 |
| 20260505210105 | 13 | 145 | 6.4 | 19.3 | 0.00 | 0.03 | 0.03 | 71 | 1011.4 |
| 20260505204604 | 13 | 104 | 3.2 | 9.7 | 0.00 | 0.03 | 0.03 | 70 | 1011.2 |
| 20260505204105 | 13 | 105 | 6.4 | 12.9 | 0.00 | 0.03 | 0.03 | 69 | 1011.2 |
| 20260505203104 | 13 | 68 | 4.8 | 11.3 | 0.00 | 0.03 | 0.03 | 69 | 1011.2 |
| 20260505201605 | 13 | 105 | 4.8 | 19.3 | 0.00 | 0.03 | 0.03 | 69 | 1011.1 |
| 20260505201105 | 13 | 109 | 9.7 | 20.9 | 0.00 | 0.03 | 0.03 | 68 | 1011.2 |
| 20260505195104 | 13 | 98 | 9.7 | 20.9 | 0.00 | 0.03 | 0.03 | 68 | 1010.8 |
| 20260505194604 | 14 | 106 | 6.4 | 16.1 | 0.00 | 0.03 | 0.03 | 68 | 1010.8 |
| 20260505191105 | 15 | 61 | 8.0 | 16.1 | 0.00 | 0.03 | 0.03 | 67 | 1010.4 |
| 20260505190604 | 15 | 112 | 6.4 | 16.1 | 0.00 | 0.03 | 0.03 | 66 | 1010.4 |
| 20260505190104 | 15 | 114 | 8.0 | 12.9 | 0.00 | 0.03 | 0.03 | 65 | 1010.4 |
| 20260505184604 | 15 | 168 | 1.6 | 4.8 | 0.00 | 0.03 | 0.03 | 60 | 1010.3 |
| 20260505184104 | 15 | 168 | 3.2 | 4.8 | 0.00 | 0.03 | 0.03 | 60 | 1010.3 |
| 20260505183604 | 15 | 168 | 4.8 | 9.7 | 0.00 | 0.03 | 0.03 | 60 | 1010.3 |
| 20260505183104 | 15 | 173 | 8.0 | 9.7 | 0.00 | 0.03 | 0.03 | 59 | 1010.2 |
| 20260505182604 | 15 | 183 | 8.0 | 11.3 | 0.00 | 0.03 | 0.03 | 60 | 1010.2 |
| 20260505180604 | 15 | 92 | 4.8 | 12.9 | 0.00 | 0.03 | 0.03 | 60 | 1010.2 |
| 20260505180105 | 15 | 111 | 4.8 | 12.9 | 0.00 | 0.03 | 0.03 | 60 | 1010.2 |
| 20260505175104 | 15 | 139 | 1.6 | 9.7 | 0.00 | 0.03 | 0.03 | 58 | 1010.2 |
| 20260505171104 | 16 | 47 | 4.8 | 11.3 | 0.00 | 0.03 | 0.03 | 58 | 1010.2 |
| 20260505170604 | 16 | 68 | 8.0 | 19.3 | 0.00 | 0.03 | 0.03 | 58 | 1010.2 |
| 20260505165604 | 16 | 51 | 4.8 | 11.3 | 0.00 | 0.03 | 0.03 | 56 | 1010.2 |
| 20260505164604 | 16 | 118 | 1.6 | 8.0 | 0.00 | 0.03 | 0.03 | 56 | 1010.2 |
| 20260505164104 | 16 | 112 | 3.2 | 4.8 | 0.00 | 0.03 | 0.03 | 56 | 1010.2 |
| 20260505163604 | 16 | 124 | 3.2 | 4.8 | 0.00 | 0.03 | 0.03 | 56 | 1010.2 |
| 20260505162104 | 16 | 55 | 3.2 | 4.8 | 0.00 | 0.03 | 0.03 | 56 | 1010.2 |
| 20260505160604 | 16 | 148 | 0.0 | 4.8 | 0.00 | 0.03 | 0.03 | 56 | 1010.2 |
| 20260505151604 | 17 | 42 | 4.8 | 11.3 | 0.00 | 0.03 | 0.03 | 56 | 1010.3 |
| 20260505150604 | 17 | 31 | 8.0 | 16.1 | 0.00 | 0.03 | 0.03 | 54 | 1010.4 |
| 20260505150106 | 17 | 75 | 6.4 | 19.3 | 0.00 | 0.03 | 0.03 | 55 | 1010.4 |
| 20260505140604 | 16 | 42 | 6.4 | 12.9 | 0.00 | 0.03 | 0.03 | 61 | 1010.8 |
| 20260505123104 | 16 | 168 | 8.0 | 16.1 | 0.00 | 0.03 | 0.03 | 57 | 1011.0 |
| 20260505122603 | 16 | 114 | 4.8 | 9.7 | 0.00 | 0.03 | 0.03 | 58 | 1011.0 |
| 20260505121604 | 16 | 104 | 4.8 | 12.9 | 0.00 | 0.03 | 0.03 | 58 | 1011.0 |
| 20260505120604 | 16 | 123 | 8.0 | 19.3 | 0.00 | 0.03 | 0.03 | 57 | 1011.1 |
| 20260505113605 | 17 | 15 | 4.8 | 11.3 | 0.00 | 0.03 | 0.03 | 58 | 1011.1 |
| 20260505112604 | 16 | 122 | 8.0 | 16.1 | 0.00 | 0.03 | 0.03 | 60 | 1011.2 |
| 20260505112105 | 16 | 123 | 3.2 | 12.9 | 0.00 | 0.03 | 0.03 | 60 | 1011.2 |
| 20260505111104 | 16 | 134 | 6.4 | 16.1 | 0.00 | 0.03 | 0.03 | 61 | 1011.4 |
| 20260505110104 | 16 | 127 | 4.8 | 12.9 | 0.00 | 0.03 | 0.03 | 65 | 1011.5 |
| 20260505101604 | 13 | 36 | 4.8 | 11.3 | 0.00 | 0.03 | 0.03 | 74 | 1011.8 |
| 20260505100104 | 13 | 34 | 8.0 | 14.5 | 0.00 | 0.03 | 0.03 | 76 | 1011.9 |
| 20260505095104 | 13 | 63 | 6.4 | 11.3 | 0.00 | 0.03 | 0.03 | 77 | 1011.9 |
| 20260505094104 | 13 | 36 | 8.0 | 9.7 | 0.00 | 0.03 | 0.03 | 77 | 1012.0 |
| 20260505093104 | 13 | 55 | 4.8 | 9.7 | 0.00 | 0.03 | 0.03 | 78 | 1012.0 |
| 20260505092604 | 13 | 55 | 4.8 | 11.3 | 0.00 | 0.03 | 0.03 | 79 | 1012.0 |
| 20260505091604 | 12 | 103 | 4.8 | 14.5 | 0.00 | 0.03 | 0.03 | 80 | 1012.1 |
| 20260505090104 | 12 | 52 | 4.8 | 9.7 | 0.00 | 0.03 | 0.03 | 81 | 1012.2 |
| 20260505085104 | 12 | 49 | 8.0 | 12.9 | 0.00 | 0.03 | 0.03 | 81 | 1012.3 |
| 20260505084104 | 12 | 61 | 8.0 | 12.9 | 0.00 | 0.03 | 0.03 | 81 | 1012.4 |
| 20260505083604 | 12 | 61 | 8.0 | 14.5 | 0.00 | 0.03 | 0.03 | 81 | 1012.3 |
| 20260505082604 | 12 | 70 | 4.8 | 11.3 | 0.00 | 0.03 | 0.03 | 82 | 1012.3 |
| 20260505082104 | 12 | 131 | 4.8 | 9.7 | 0.00 | 0.03 | 0.03 | 82 | 1012.3 |
| 20260505081104 | 12 | 60 | 4.8 | 11.3 | 0.00 | 0.03 | 0.03 | 83 | 1012.2 |
| 20260505080604 | 12 | 60 | 3.2 | 9.7 | 0.00 | 0.03 | 0.03 | 83 | 1012.2 |
| 20260505075103 | 11 | 63 | 8.0 | 12.9 | 0.00 | 0.03 | 0.03 | 83 | 1012.2 |
| 20260505074104 | 11 | 47 | 6.4 | 14.5 | 0.00 | 0.03 | 0.03 | 84 | 1012.2 |
| 20260505073606 | 11 | 34 | 8.0 | 11.3 | 0.00 | 0.03 | 0.03 | 84 | 1012.2 |